Location: ?????
(31.8092°N, 35.2590°E)
Time: 02:57:16
(UTC+00:00)

NOSS 3-1 (A) - Pass Details

Date: 20 June 2021
Orbit: 729 x 1483 km, 63.4° (Epoch: 23 July)

Event Time Altitude Azimuth Distance (km) Brightness Sun altitude
Exits shadow 22:11:32 35° 332° (NNW) 1,290 4.4 -34.3°
Drops below altitude 10° 22:15:56 10° 15° (NNE) 2,568 6.5 -34.1°
Sets 22:18:50 0° 23° (NNE) 3,628 7.5 -34.0°
